SCP
0 0 0 0 0 0 0 0 0 0 0 0 0 0 0 0 0 0 0 0 0 0
0 0 0 0 0 0 0 0 0 0 0 0 0 0 0 0 0 0 0 0 0 0
0 0 0 0 0 0 0 0 0 0 0 0 0 0 0 0 0 0 0 0 0 0
0 0 0 0 0 0 0 0 0 0 0 0 0 0 0 0 0 0 0 0 0 0
0 0 0 0 0 0 0 0 0 0 0 0 0 0 0 0 0 0 0 0 0 0
0 0 0 0 0 0 0 0 0 0 0 0 0 0 0 0 0 0 0 0 0 0
0 0 0 0 0 0 0 0 0 0 0 0 0 0 0 0 0 0 0 0 0 0
0 0 0 0 0 0 0 0 0 0 0 0 0 0 0 0 0 0 0 0 0 0
0 0 0 0 0 0 0 0 0 0 0 0 0 0 0 0 0 0 0 0 0 0
0 0 0 0 0 0 0 0 0 0 0 0 0 0 0 0 0 0 0 0 0 0
0 0 0 0 0 0 0 0 0 0 0 0 0 0 0 0 0 0 0 0 0 0
0 0 0 0 0 0 0 0 0 0 0 0 0 0 0 0 0 0 0 0 0 0
0 0 0 0 0 0 0 0 0 0 0 0 0 0 0 0 0 0 0 0 0 0
0 0 0 0 0 0 0 0 0 0 0 0 0 0 0 0 0 0 0 0 0 0
Wind_Speed_500mb
64 61 54 52 53 53 56 55 56 57 53 55 55 59 62 61 66 69 68 62 58 51
59 56 55 53 55 55 52 48 46 47 50 54 55 57 60 60 68 73 69 61 48 47
53 54 54 55 56 54 49 45 44 46 50 51 52 56 57 60 65 65 58 50 41 44
48 49 51 52 51 49 45 45 49 50 50 53 55 56 56 59 63 62 56 46 46 53
47 51 54 52 49 48 48 50 51 53 53 55 55 56 58 60 61 60 57 54 61 55
51 53 53 52 51 52 51 51 52 52 57 57 57 58 58 59 60 64 61 68 56 59
56 58 57 55 55 54 51 52 55 55 56 58 57 57 60 66 71 70 70 58 56 45
63 63 62 61 59 57 54 54 54 57 60 59 60 62 71 77 79 77 65 61 51 58
72 73 71 68 65 61 57 54 58 61 63 66 69 70 75 78 78 68 63 65 65 69
82 80 79 74 70 67 65 60 61 63 66 70 74 77 84 82 80 67 72 69 74 73
89 86 83 81 79 74 73 71 65 68 72 78 84 89 93 89 76 72 70 71 70 71
85 92 90 89 84 81 81 78 74 75 79 86 92 96 99 92 81 89 87 77 78 70
80 88 92 90 88 84 84 83 81 78 83 89 97 101 104 96 87 82 85 90 78 69
72 77 80 82 82 84 84 86 89 87 87 95 101 107 110 98 96 90 94 93 82 65
Wind_Direction_500mb
232 238 242 245 246 243 245 240 239 237 242 238 236 234 233 228 224 218 217 217 217 228
232 236 241 245 245 243 243 242 236 240 240 241 239 236 230 221 218 215 217 218 223 232
235 240 245 244 245 247 246 241 237 241 244 237 241 234 232 223 218 218 216 223 222 227
239 243 245 247 249 247 245 239 242 240 241 240 235 230 225 220 217 214 212 210 208 203
239 242 246 248 248 245 245 248 236 236 239 236 232 228 224 220 212 205 198 201 201 191
242 247 249 249 248 246 246 244 240 236 232 232 230 226 218 214 204 197 206 198 191 201
245 249 250 250 247 245 247 240 239 237 234 229 224 217 211 203 201 197 191 189 201 199
252 253 251 249 246 243 245 240 235 235 230 222 218 212 205 201 197 192 190 204 199 199
259 257 255 251 245 241 242 239 234 230 228 221 214 208 205 202 198 197 209 209 202 207
260 260 257 253 246 241 240 239 235 230 226 218 212 206 204 203 205 209 211 210 210 210
264 261 259 255 250 244 239 236 234 229 224 217 211 207 206 206 205 213 212 216 206 222
266 260 259 255 251 247 242 236 230 228 224 218 213 212 210 206 207 218 220 208 214 227
271 264 261 258 255 249 243 240 234 230 227 222 215 214 210 210 219 214 211 206 212 230
274 268 265 261 254 247 242 238 234 230 229 223 218 216 214 217 215 214 210 208 218 222
Wind_Speed_850mb
64 61 54 52 53 53 56 55 56 57 53 55 55 59 62 61 66 69 68 62 58 51
59 56 55 53 55 55 52 48 46 47 50 54 55 57 60 60 68 73 69 61 48 47
53 54 54 55 56 54 49 45 44 46 50 51 52 56 57 60 65 65 58 50 41 44
48 49 51 52 51 49 45 45 49 50 50 53 55 56 56 59 63 62 56 46 46 53
47 51 54 52 49 48 48 50 51 53 53 55 55 56 58 60 61 60 57 54 61 55
51 53 53 52 51 52 51 51 52 52 57 57 57 58 58 59 60 64 61 68 56 59
56 58 57 55 55 54 51 52 55 55 56 58 57 57 60 66 71 70 70 58 56 45
63 63 62 61 59 57 54 54 54 57 60 59 60 62 71 77 79 77 65 61 51 58
72 73 71 68 65 61 57 54 58 61 63 66 69 70 75 78 78 68 63 65 65 69
82 80 79 74 70 67 65 60 61 63 66 70 74 77 84 82 80 67 72 69 74 73
89 86 83 81 79 74 73 71 65 68 72 78 84 89 93 89 76 72 70 71 70 71
85 92 90 89 84 81 81 78 74 75 79 86 92 96 99 92 81 89 87 77 78 70
80 88 92 90 88 84 84 83 81 78 83 89 97 101 104 96 87 82 85 90 78 69
72 77 80 82 82 84 84 86 89 87 87 95 101 107 110 98 96 90 94 93 82 65
Wind_Direction_850mb
232 238 242 245 246 243 245 240 239 237 242 238 236 234 233 228 224 218 217 217 217 228
232 236 241 245 245 243 243 242 236 240 240 241 239 236 230 221 218 215 217 218 223 232
235 240 245 244 245 247 246 241 237 241 244 237 241 234 232 223 218 218 216 223 222 227
239 243 245 247 249 247 245 239 242 240 241 240 235 230 225 220 217 214 212 210 208 203
239 242 246 248 248 245 245 248 236 236 239 236 232 228 224 220 212 205 198 201 201 191
242 247 249 249 248 246 246 244 240 236 232 232 230 226 218 214 204 197 206 198 191 201
245 249 250 250 247 245 247 240 239 237 234 229 224 217 211 203 201 197 191 189 201 199
252 253 251 249 246 243 245 240 235 235 230 222 218 212 205 201 197 192 190 204 199 199
259 257 255 251 245 241 242 239 234 230 228 221 214 208 205 202 198 197 209 209 202 207
260 260 257 253 246 241 240 239 235 230 226 218 212 206 204 203 205 209 211 210 210 210
264 261 259 255 250 244 239 236 234 229 224 217 211 207 206 206 205 213 212 216 206 222
266 260 259 255 251 247 242 236 230 228 224 218 213 212 210 206 207 218 220 208 214 227
271 264 261 258 255 249 243 240 234 230 227 222 215 214 210 210 219 214 211 206 212 230
274 268 265 261 254 247 242 238 234 230 229 223 218 216 214 217 215 214 210 208 218 222